Regional Weather Roundup
Issued by NWS New Orleans/Baton Rouge, LA

Home | Current Version | Previous Version | Text Only | Print | Product List | Glossary On
Versions: 1 2 3 4 5 6 7 8 9 10 11 12 13 14 15 16 17 18 19 20 21 22 23 24 25 26 27 28 29 30 31 32 33 34 35 36 37 38 39 40 41 42 43 44 45 46 47 48 49 50
000
ASUS44 KLIX 191014
RWRLIX
NEW ORLEANS REGIONAL WEATHER ROUNDUP
NATIONAL WEATHER SERVICE NEW ORLEANS LA
500 AM CDT SAT AUG 19 2017

NOTE: "FAIR" INDICATES FEW OR NO CLOUDS BELOW 12,000 FEET WITH NO
      SIGNIFICANT WEATHER AND/OR OBSTRUCTIONS TO VISIBILITY.
      SKY/WX - SKY CONDITION AND SIGNIFICANT WEATHER.
      TMP - AIR TEMPERATURE.     DP    - DEWPOINT TEMPERATURE.
      RH  - RELATIVE HUMIDITY.   PRES  - PRESSURE.
      HI  - HEAT INDEX.          WCI   - WIND CHILL INDEX.

*  THESE STATIONS ARE NOT NWS OR FAA STATIONS AND ARE NOT UNDER
   NWS QUALITY CONTROL.

LAZ038-040-048-061>063-065>067-069-191100-
SOUTHEAST LOUISIANA

CITY           SKY/WX    TMP DP  RH WIND       PRES   REMARKS
N.O. INTL ARPT PTCLDY    81  78  91 NW5       29.99S
N.O. LAKEFRONT CLEAR     85  79  82 NW15      29.99S HX  98
N.O. DOWNTOWN*   N/A     84  77  79 W3        30.00S
RESERVE*         N/A     80  77  90 CALM      30.00R
SLIDELL        CLEAR     78  76  93 CALM      29.98S
BATON ROUGE    CLEAR     79  76  90 W3        30.00R
BOOTHVILLE     MOCLDY    83  77  82 W10       30.00R
BELLE CHASSE   NOT AVBL
BOGALUSA*        N/A     76  72  87 CALM      30.01S
GALLIANO*      SUNNY     78  75  91 CALM      30.00S
NEW ROADS*       N/A     77  76  98 CALM      30.00S
GONZALES*        N/A     78  76  94 CALM      29.99S
HAMMOND*       CLEAR     77  73  88 CALM      30.00S
HOUMA*         NOT AVBL
PORT FOURCHON* MOSUNNY   86  77  74 W7        29.99S HX  97

$$

MSZ070-080>082-191100-
SOUTHERN MISSISSIPPI

CITY           SKY/WX    TMP DP  RH WIND       PRES   REMARKS
MCCOMB         CLEAR     74  72  93 CALM      30.01S
GULFPORT       CLEAR     77  76  96 CALM      29.98R
BILOXI         CLEAR     77  75  93 CALM      29.98R
PASCAGOULA     CLOUDY    73  71  93 CALM      29.98S

$$

COASTAL OBSERVATIONS
LAKE AND NEARSHORE STATIONS

STATION/POSITION TIME  TEMP    WIND        PRES    WAVE
                       AIR SEA DIR/SP/G            HT/PER
                 (UTC) (F)     (DEG/KT/KT) (MB)    (FT/S)
PASCAGOULA       0948   77     360/  6/  7 1014.9
WAVELAND YACHT   0948   80 87  300/  5/  6 1015.4
GRAND ISLE       0948   85 90  320/  8/ 10 1015.7
SOUTHWEST PASS   0948          270/ 12/ 13   N/A
NEW CANAL        0948   85 87  280/  6/ 12 1015.6
SHELL BEACH      0948   81 90  240/  5/  6 1015.6

OFFSHORE STATIONS

STATION/POSITION TIME  TEMP    WIND        PRES    WAVE
                       AIR SEA DIR/SP/G            HT/PER
                 (UTC) (F)     (DEG/KT/KT) (MB)    (FT/S)
64 S DAUPHIN ISL 0950   86 88  260/ 12/ 14 1015.0    1/ 2

$$




USA.gov is the U.S. government's official web portal to all federal, state and local government web resources and services.